#timestamp,LO_Frequency,Hit,StdDev 
1547751615.7,286046999.3,N
1547751635.6,286046999.0,N
1547751655.4,286046996.6,N
1547751675.2,286046997.1,N
1547751695.1,286046999.4,N
1547751696.0,286046999.4,N
1547751715.8,286046998.9,N
1547751735.7,286046997.3,N
1547751755.5,286046997.6,N
1547751775.3,286046998.0,N
1547751795.2,286046995.4,Y
1547751815.0,286046996.6,P
1547751815.9,286046996.6,P
1547751835.7,286046999.3,N
1547751855.6,286046998.8,N
1547751875.4,286047002.6,N
1547751895.3,286047003.6,N
1547751915.1,286047003.6,N
1547751916.0,286047003.6,N
1547751935.8,286047001.3,N
1547751955.7,286047004.2,N
1547751975.5,286047004.4,N
1547751995.3,286047004.3,N
1547752015.2,286047001.3,N
1547752035.0,286047004.4,N
1547752035.9,286047004.4,N
1547752055.8,286047002.5,N
1547752075.6,286047004.3,N
1547752095.4,286047004.4,N
1547752115.3,286047001.4,N
1547752135.1,286047002.7,N
1547752155.8,286047001.8,N
1547752175.7,286047003.0,N
1547752195.5,286047004.1,N
1547752215.3,286047002.1,N
1547752235.2,286047001.7,N
1547752255.0,286047003.8,N
1547752255.9,286047003.8,N
1547752275.8,286047003.3,N
1547752295.6,286047005.6,N
1547752315.4,286047003.2,N
1547752335.3,286047007.5,Y
1547752355.1,286047004.4,P
1547752375.9,286047004.0,P
1547752395.7,286047002.7,P
1547752415.5,286047000.0,N
1547752435.4,286047000.2,N
1547752455.2,286047000.7,N
1547752475.0,286047001.0,N
1547752475.9,286047001.0,N
1547752495.8,286047001.9,N
1547752515.6,286047001.8,N
1547752535.4,286047000.0,N
1547752555.3,286047001.0,N
1547752575.1,286047000.3,N
1547752595.9,286047001.6,N
1547752615.7,286047002.3,N
1547752635.5,286047000.1,N
1547752655.4,286047000.3,N
1547752675.2,286047002.1,N
1547752695.0,286047000.6,N
1547752695.9,286047000.6,N
1547752715.8,286047000.3,N
1547752735.6,286047000.5,N
1547752755.5,286046999.9,N
1547752775.3,286047001.0,N
1547752795.1,286047011.9,Y
1547752815.9,286047001.0,P
1547752835.7,286046999.8,N
1547752855.5,286047000.5,N
1547752875.4,286047002.4,Y
1547752895.2,286046999.8,P
1547752915.1,286047000.1,N
1547752916.0,286047000.1,N
1547752935.8,286047000.0,N
1547752955.6,286047002.7,Y
1547752975.5,286046998.4,P
1547752995.3,286046998.1,N
1547753015.2,286046999.0,N
1547753035.9,286046998.4,N
1547753055.7,286047000.9,N
1547753075.6,286047002.3,N
1547753095.4,286047004.0,N
1547753115.2,286047004.1,N
1547753135.1,286047003.5,N
1547753136.0,286047003.5,N
1547753155.8,286047004.0,N
1547753175.7,286047002.6,N
1547753195.5,286047000.4,N
1547753215.3,286046998.3,N
1547753235.2,286046998.6,N
1547753255.0,286046996.5,N
1547753255.9,286046996.5,N
1547753275.8,286046998.9,N
1547753295.6,286046997.0,N
1547753315.4,286046998.0,N
1547753335.3,286046996.0,N
1547753355.1,286046993.4,N
1547753375.8,286046993.8,N
1547753395.7,286046995.4,N
1547753415.5,286046999.0,N
1547753435.4,286046998.4,N
1547753455.2,286047000.8,N
1547753475.0,286047002.2,N
1547753475.9,286047002.2,N
1547753495.8,286047000.5,N
1547753515.6,286047002.8,N
1547753535.4,286047002.1,N
1547753555.3,286047000.7,N
1547753575.1,286046999.0,N
1547753595.9,286046997.3,N
1547753615.7,286046996.0,N
1547753635.5,286046993.3,N
1547753655.4,286046997.7,N
1547753675.2,286046999.2,N
1547753695.0,286046996.5,N
1547753695.9,286046996.5,N
1547753715.8,286046997.2,N
1547753735.6,286046995.2,N
1547753755.5,286046995.5,N
1547753775.3,286046995.9,N
1547753795.1,286046996.3,N
1547753815.9,286046997.1,N
1547753835.7,286046995.0,N
1547753855.5,286046995.9,N
1547753875.4,286046993.6,N
1547753895.2,286046993.5,N
1547753915.1,286046996.1,N
1547753916.0,286046996.1,N
1547753935.8,286046994.0,N
1547753955.6,286046994.9,N
1547753975.5,286046995.7,N
1547753995.3,286046996.3,N
1547754015.1,286046996.2,N
1547754035.9,286046998.0,N
1547754055.7,286046996.7,N
1547754075.6,286046997.6,N
1547754095.4,286046997.9,N
1547754115.2,286046994.0,Y
1547754135.1,286046996.6,P
1547754136.0,286046996.6,P
1547754155.8,286047002.7,P
1547754175.6,286047004.0,N
1547754195.5,286047000.1,N
1547754215.3,286047000.3,N
1547754235.2,286047001.0,N
1547754255.9,286047000.0,N
1547754275.7,286047001.3,N
1547754295.6,286047003.6,N
1547754315.4,286047004.1,N
1547754335.2,286047002.6,N
1547754355.1,286047001.0,N
1547754386.0,286047000.3,E
1547754395.0,286047000.7,N
1547754395.9,286047000.7,P
1547754415.8,286047002.4,P
1547754435.6,286047001.9,N
1547754455.4,286046999.7,N
1547754475.3,286047002.0,N
1547754495.1,286047001.9,N
1547754515.9,286047001.5,N
1547754535.7,286047001.0,N
1547754555.5,286046999.5,N
1547754575.4,286046999.0,N
1547754595.2,286046998.7,N
1547754615.0,286047000.4,N
1547754615.9,286047000.4,N
1547754635.8,286046999.7,N
1547754655.6,286047000.6,N
1547754675.4,286047000.8,N
1547754695.3,286047001.0,N
1547754715.1,286047000.7,N
1547754735.9,286047000.7,N
1547754755.7,286046999.8,N
1547754775.5,286047002.3,N
1547754795.4,286047004.3,Y
1547754815.2,286047004.1,P
1547754835.0,286047001.6,N
1547754836.0,286047001.6,N
1547754855.8,286047000.5,N
1547754875.6,286047000.2,N
1547754895.5,286047002.7,N
1547754915.3,286047002.4,N
1547754935.1,286046999.8,N
1547754955.9,286047002.1,N
1547754975.7,286047001.8,N
1547754995.5,286047001.3,N
1547755015.4,286047001.8,N
1547755035.2,286047003.0,N
1547755055.1,286047003.6,Y
1547755056.0,286047003.6,P
1547755075.8,286047002.3,N
1547755095.6,286046999.7,N
1547755115.5,286046999.0,N
1547755135.3,286047001.1,N
1547755155.2,286047000.6,N
1547755175.9,286046998.8,N
1547755195.7,286046998.7,N
